Location: Newark
(34.0131°N, 4.3314°W)
Time: 21:47:49
(UTC+00:00)

Explorer 7 - Pass Details

Date: 18 October 2019
Orbit: 485 x 680 km, 50.3° (Epoch: 21 November)

Event Time Altitude Azimuth Distance (km) Brightness Sun altitude
Rises 18:11:28 0° 317° (NW) 2,646 10.9 -7.3°
Reaches altitude 10° 18:13:43 10° 324° (NW) 1,784 9.8 -7.7°
Maximum altitude 18:17:35 42° 36° (NE) 795 7.3 -8.5°
Drops below altitude 10° 18:21:41 10° 109° (ESE) 1,891 9.0 -9.4°
Enters shadow 18:21:43 10° 109° (ESE) 1,906 9.0 -9.4°
Sets 18:24:07 0° 116° (ESE) 2,826 - -9.9°
